カタログに戻る

STARLINK-34059

運用中通信VLEO
NORAD 63872·PAYLOAD·🇺🇸 United States

打ち上げ May 10, 2025 から Vandenberg Space Force Base

Loading…

次のパス (今後24時間)

TLE

最新Source: CelesTrak SupGP

元期: Sep 14, 2026, 20:50 UTC

1 63872C 25094J   26257.86854167 -.00023363  00000+0 -81283-3 0  2573
2 63872  69.9986 115.6292 0003285 270.1270 199.9109 15.29586506    14

AllMySatでSTARLINK-34059をリアルタイム追跡

Download on the App Store